Regional Weather Roundup
Issued by NWS

Home | Current Version | Previous Version | Graphics & Text | Print | Product List | Glossary On
Versions: 1 2 3 4 5 6 7 8 9 10 11 12 13 14 15 16 17 18 19 20 21 22 23 24 25 26 27 28 29 30 31 32 33 34 35 36 37 38 39 40 41 42 43 44 45 46 47 48 49 50
000
ASUS43 KOAX 252010
RWRNE

WEATHER ROUNDUP FOR NEBRASKA
NATIONAL WEATHER SERVICE OMAHA NE
200 PM CST SAT FEB 25 2017

NOTES: SATELLITE DATA IS BEING USED TO AUGMENT CLOUD COVER ABOVE
       12000 FEET.
       "FAIR" INDICATES FEW OR NO CLOUDS BELOW 12,000 FEET WITH NO
       SIGNIFICANT WEATHER AND/OR OBSTRUCTIONS TO VISIBILITY.

  * THESE STATIONS DO NOT REPORT WEATHER SUCH AS RAIN...SNOW OR FOG.

NEZ001>004-019>022-054>056-252100-
NEBRASKA PANHANDLE

CITY           SKY/WX    TMP DP  RH WIND       PRES   REMARKS
SCOTTSBLUFF    CLOUDY    24  11  57 NW10      29.89F WCI  14
ALLIANCE       SUNNY     24  14  65 W16       29.86F WCI  11
CHADRON        CLOUDY    28  17  63 W15       29.87F WCI  16
KIMBALL        CLOUDY    28  13  52 NW9G20    29.86F WCI  19
SIDNEY         CLOUDY    29  12  49 NW17      29.87F WCI  17
$$

NEZ057>060-069>072-079>082-252100-
SOUTHWEST NEBRASKA

CITY           SKY/WX    TMP DP  RH WIND       PRES   REMARKS
NORTH PLATTE   SUNNY     32  19  58 W16       29.92F WCI  21
IMPERIAL       SUNNY     34  17  50 NW16      29.93F WCI  24
LEXINGTON      SUNNY     35  22  59 W14       29.93F WCI  25
MCCOOK         SUNNY     39  19  44 W13G22    29.94F WCI  31
OGALLALA       SUNNY     33  18  54 NW18G24   29.91F WCI  21
$$

NEZ005>010-023>029-035>040-094-252100-
NORTH CENTRAL NEBRASKA

CITY           SKY/WX    TMP DP  RH WIND       PRES   REMARKS
VALENTINE      SUNNY     26  15  63 W15       29.86F WCI  14
AINSWORTH      SUNNY     29  19  66 W13       29.86F WCI  19
BROKEN BOW     SUNNY     30  20  66 SW13      29.90F WCI  20
O`NEILL        MOSUNNY   30  20  67 SW15      29.89F WCI  19
ORD            SUNNY     31  20  63 SW16      29.91F WCI  20
THEDFORD       SUNNY     29  19  65 W10       29.88F WCI  20
$$

NEZ041-046>049-061>064-073>077-083>087-252100-
SOUTH CENTRAL NEBRASKA

CITY           SKY/WX    TMP DP  RH WIND       PRES   REMARKS
GRAND ISLAND   SUNNY     32  24  72 S15       29.98F WCI  22
AURORA         SUNNY     32  21  64 S14       29.99F WCI  22
HASTINGS       SUNNY     33  22  63 SW12G23   29.99F WCI  24
HEBRON         SUNNY     35  22  59 SW12      30.05F WCI  27
HOLDREGE       PTSUNNY   40  24  53 W15       29.93F WCI  31
KEARNEY *      CLOUDY    37  25  60 SW17G24   29.95F WCI  28
YORK           SUNNY     28  21  74 S15       30.01F WCI  17
$$

NEZ011>018-030>034-042>045-252100-
NORTHEAST NEBRASKA

CITY           SKY/WX    TMP DP  RH WIND       PRES   REMARKS
NORFOLK        MOSUNNY   27  16  63 S20       29.96F WCI  13
ALBION         SUNNY     31  19  58 S13       29.95F WCI  22
BLAIR          MOSUNNY   28  17  63 S13       30.04F WCI  18
FREMONT        MOSUNNY   28  17  62 S10       30.05F WCI  19
TEKAMAH        MOSUNNY   28  19  69 S12       30.05F WCI  18
WAYNE          SUNNY     28  14  54 S13       29.98F WCI  18
$$

NEZ050>053-065>068-078-088>093-252100-
SOUTHEAST NEBRASKA

CITY           SKY/WX    TMP DP  RH WIND       PRES   REMARKS
LINCOLN        SUNNY     30  19  63 SW7       30.08F WCI  23
OMAHA EPPLEY   PTSUNNY   31  11  43 SW9       30.08F WCI  23
BEATRICE       SUNNY     36  19  50 S13       30.07F WCI  27
FALLS CITY     SUNNY     36  15  42 W7        30.11F WCI  30
NEBRASKA CITY  MOSUNNY   32  15  49 SW8       30.09F WCI  24
PLATTSMOUTH    SUNNY     31  14  50 S8        30.08F WCI  23
$$

NEZ044-045-051>053-067-252100-
OMAHA AREA

CITY           SKY/WX    TMP DP  RH WIND       PRES   REMARKS
OMAHA EPPLEY   PTSUNNY   31  11  43 SW9       30.08F WCI  23
BLAIR          MOSUNNY   28  17  63 S13       30.04F WCI  18
FREMONT        MOSUNNY   28  17  62 S10       30.05F WCI  19
MILLARD        PTSUNNY   31  16  54 S8        30.08F WCI  24
OFFUTT AFB     MOSUNNY   31  10  43 SW10      30.08F WCI  22
PLATTSMOUTH    SUNNY     31  14  50 S8        30.08F WCI  23
WAHOO          FAIR      29  15  57 S10       30.06F WCI  19
$$



USA.gov is the U.S. government's official web portal to all federal, state and local government web resources and services.